Location: Unspecified
(0.0000°N, 0.0000°E)
Time: 13:37:24
(UTC+00:00)

Altair - Pass Details

Date: 05 November 2021
Orbit: 1502 x 1682 km, 47.2° (Epoch: 26 November)

Event Time Altitude Azimuth Distance (km) Brightness Sun altitude
Rises 18:57:45 0° 204° (SSW) 4,764 10.7 -17.8°
Reaches altitude 10° 19:01:12 10° 196° (SSW) 3,752 10.0 -18.6°
Maximum altitude 19:09:45 38° 131° (SE) 2,172 8.0 -20.7°
Enters shadow 19:13:03 30° 92° (E) 2,461 8.0 -21.5°
Drops below altitude 10° 19:18:02 10° 66° (ENE) 3,653 - -22.6°
Sets 19:21:19 0° 58° (ENE) 4,626 - -23.4°
